Weather History for KCAE - August, 2014

Change the Weather History Date:

Thursday, August 28, 2014

  Actual Average Record
Temperature  
Mean Temperature 79 °F 80 °F  
Max Temperature 97 °F 89 °F 100 °F (1948)
Min Temperature 61 °F 70 °F 56 °F (1969)
Degree Days  
Heating Degree Days 0 0  
Month to date heating degree days 0 0  
Since 1 June heating degree days 0 1  
Since 1 July heating degree days 0 0  
Cooling Degree Days 14 15  
Month to date cooling degree days 474 451  
Year to date cooling degree days 1975 1728  
Since 1 June cooling degree days 1561 1407  
Growing Degree Days 29 (Base 50)    
Moisture  
Dew Point 58 °F    
Average Humidity 58    
Maximum Humidity 90    
Minimum Humidity 26    
Precipitation  
Precipitation 0.00 in 0.15 in 4.30 in (1893)
Month to date precipitation 4.79 4.85  
Year to date precipitation 27.99 31.51  
Sea Level Pressure  
Sea Level Pressure 29.99 in    
Wind  
Wind Speed 4 mph (South)    
Max Wind Speed 10 mph    
Max Gust Speed 16 mph    
Visibility 10 miles    
Events      
T = Trace of Precipitation, MM = Missing Value Source: NWS Daily Summary

Daily Weather History Graph

Daily Weather History Graph

Search for Another Location

Airport or City:

Trip Planner

Search our weather history database for the weather conditions in past years. The results will help you decide how hot, cold, wet, or windy it might be!

Date:

Astronomy

Aug. 28, 2014 Rise Set
Actual Time 6:55 AM EDT 7:55 PM EDT
Civil Twilight 6:29 AM EDT 8:21 PM EDT
Nautical Twilight 5:59 AM EDT 8:51 PM EDT
Astronomical Twilight 5:27 AM EDT 9:22 PM EDT
Moon 9:36 AM EDT (8/28) 9:29 PM EDT (8/28)
Length of Visible Light 13h 51m
Length of Day
13h 00m
Waxing Crescent, 8% of the Moon is Illuminated
Aug 28
Waxing Crescent
Sep 2
First Quarter
Sep 8
Full
Sep 15
Last Quarter
Sep 24
New

Hourly Weather History & Observations

Time (EDT) Temp. Heat Index Dew Point Humidity Pressure Visibility Wind Dir Wind Speed Gust Speed Precip Events Conditions
12:56 AM 66.9 °F - 61.0 °F 81% 30.00 in 10.0 mi SSW 3.5 mph - N/A   Clear
1:56 AM 64.9 °F - 59.0 °F 81% 30.00 in 10.0 mi West 3.5 mph - N/A   Clear
2:56 AM 64.0 °F - 57.9 °F 80% 29.99 in 10.0 mi West 5.8 mph - N/A   Clear
3:56 AM 63.0 °F - 59.0 °F 87% 29.99 in 10.0 mi Calm Calm - N/A   Clear
4:56 AM 62.1 °F - 57.9 °F 86% 30.00 in 10.0 mi WSW 3.5 mph - N/A   Clear
5:56 AM 62.1 °F - 57.9 °F 86% 30.00 in 10.0 mi Calm Calm - N/A   Clear
6:56 AM 61.0 °F - 57.0 °F 87% 30.01 in 10.0 mi Calm Calm - N/A   Scattered Clouds
7:56 AM 64.9 °F - 57.9 °F 78% 30.02 in 10.0 mi Calm Calm - N/A   Partly Cloudy
8:56 AM 72.0 °F - 60.1 °F 66% 30.03 in 10.0 mi SW 3.5 mph - N/A   Partly Cloudy
9:56 AM 82.0 °F 82.4 °F 60.1 °F 47% 30.03 in 10.0 mi WSW 3.5 mph - N/A   Partly Cloudy
10:56 AM 86.0 °F 85.4 °F 59.0 °F 40% 30.04 in 10.0 mi Variable 6.9 mph - N/A   Partly Cloudy
11:56 AM 90.0 °F 88.6 °F 57.0 °F 33% 30.02 in 10.0 mi Calm Calm - N/A   Partly Cloudy
12:56 PM 90.0 °F 88.6 °F 57.0 °F 33% 30.01 in 10.0 mi South 4.6 mph - N/A   Partly Cloudy
1:56 PM 93.0 °F 91.7 °F 57.0 °F 30% 29.99 in 10.0 mi Variable 4.6 mph - N/A   Clear
2:56 PM 93.9 °F 92.6 °F 57.0 °F 29% 29.96 in 10.0 mi ESE 5.8 mph - N/A   Partly Cloudy
3:56 PM 95.0 °F 93.0 °F 55.0 °F 26% 29.95 in 10.0 mi SSE 8.1 mph - N/A   Partly Cloudy
4:56 PM 95.0 °F 93.4 °F 55.9 °F 27% 29.94 in 10.0 mi SE 8.1 mph - N/A   Partly Cloudy
5:56 PM 95.0 °F 93.0 °F 55.0 °F 26% 29.94 in 10.0 mi ESE 9.2 mph - N/A   Scattered Clouds
6:56 PM 93.0 °F 91.4 °F 55.9 °F 29% 29.95 in 10.0 mi ESE 8.1 mph - N/A   Scattered Clouds
7:56 PM 88.0 °F 87.9 °F 61.0 °F 40% 29.96 in 10.0 mi SE 6.9 mph - N/A   Scattered Clouds
8:56 PM 82.0 °F 83.0 °F 62.1 °F 51% 29.97 in 10.0 mi South 5.8 mph - N/A   Scattered Clouds
9:56 PM 82.0 °F 81.7 °F 57.0 °F 42% 29.99 in 10.0 mi Calm Calm - N/A   Clear
10:56 PM 78.1 °F - 59.0 °F 52% 30.01 in 10.0 mi South 3.5 mph - N/A   Clear
11:56 PM 78.1 °F - 60.1 °F 54% 30.01 in 10.0 mi SSW 6.9 mph - N/A   Clear